Location: *
(41.3833°S, 177.8333°W)
Time: 02:04:08
(UTC+00:00)

Radarsat Rocket - Pass Details

Date: 01 April 2020
Orbit: 933 x 1492 km, 100.6° (Epoch: 05 June)

Event Time Altitude Azimuth Distance (km) Brightness Sun altitude
Rises 17:18:39 0° 3° (N) 3,595 7.0 -10.1°
Reaches altitude 10° 17:21:03 10° 357° (N) 2,683 6.3 -9.6°
Maximum altitude 17:26:51 52° 281° (W) 1,238 4.2 -8.5°
Drops below altitude 10° 17:33:16 10° 205° (SSW) 2,967 6.3 -7.3°
Sets 17:36:04 0° 200° (SSW) 4,010 7.0 -6.8°
